Weather in Grankino

Russia / Oryol Oblast     52°26′00″N   35°41′17″E
temp.,
°C
wind,
m/s
gust,
m/s
humid.,
%
clouds,
%
prec.,
mm/h
press.,
hPa
HPBL,
m
2 august, mon
mon200:00+21sse346192 0.0 101146
03:00+21s355927 0.0 101070
06:00+20s34715 0.2 100953
09:00+27s685126 0.2 1009471
12:00+30ssw8114458 0.0 10081746
15:00+32ssw8103752 0.0 10062761
18:00+30s584458 0.0 1004670
21:00+17ssw2294100 21.4 100990
3 august, tue
tue300:00+18ssw41096100 0.2 1008232
03:00+18sw51096100 0.2 1009351
06:00+17w489486 0.0 1010380
09:00+17w4587100 0.0 1012543
12:00+18wnw4676100 0.0 1013778
15:00+23wnw4555100 0.0 10121591
18:00+21nw5863100 0.0 1013491
21:00+19nw2269100 0.0 101437
4 august, wed
wed400:00+18wnw2265100 0.0 101539
03:00+15wnw336914 0.0 101653
06:00+14wnw22750 0.0 101731
09:00+20wnw23530 0.0 1017421
12:00+23w45436 0.0 10171644
15:00+24wnw4541100 0.0 10172266
18:00+23wnw2350100 0.0 1017755
21:00+18nw225974 0.0 101811
5 august, thu
thu500:00+16n226499 0.0 101811
03:00+16se1167100 0.0 101811
06:00+16se2268100 0.0 101813
09:00+16ne3576100 0.1 1018126
12:00+18e4769100 0.1 1017307
15:00+20ese246180 0.1 1016134
18:00+23se23568 0.0 1015271
21:00+18se22695 0.0 101512
6 august, fri
fri600:00+17nnw117076 0.0 101411
03:00+18s336599 0.0 101434
06:00+18sse3366100 0.0 101452
09:00+21se235873 0.0 1013253
12:00+27s344334 0.0 1013911
15:00+29s45365 0.0 10121912
18:00+29se354498 0.0 1011202
21:00+23ese48486 0.0 1011109